JAM-E JAM 1

Last updated on Tue Sep 22 2026 00:03:17 GMT+0000 (Coordinated Universal Time)

1 67757U 26028B 26264.61150086 .00000152 00000+0 00000+0 0 9993 2 67757 0.1530 5.9889 0000401 47.2972 201.2271 1.00270734 2087
UTC large
Height (km)
Speed (km/s)
/
Latitude / Longitude
Inclination (degrees)
Orbital Period (minutes)
Azimuth
Elevation
Range (km)
Doppler Factor

Next 0 passes for location: London (51.5072 / 0.1276)

No passes found over London.
JAM-E JAM 1